Location: Arrakis Observatory
(44.1122°N, 95.7153°W)
Time: 01:53:26
(UTC-05:00)

Iridium 35 - Visible Passes

Search period start: 29 July 2015 00:00
Search period end: 08 August 2015 00:00
Orbit: 776 x 779 km, 86.4° (Epoch: 28 July)

Date Brightness Start Highest point End Pass type
(mag) Time Alt. Az. Time Alt. Az. Time Alt. Az.
29 Jul 7.5 22:41:52 10° WSW 22:45:47 20° WNW 22:49:34 10° NNW visible
30 Jul 6.7 22:07:09 10° SW 22:11:56 35° W 22:16:42 10° NNW visible
31 Jul 5.6 21:33:05 10° SSW 21:38:16 63° W 21:43:27 10° N visible
01 Aug 7.8 22:43:12 10° WSW 22:46:10 15° WNW 22:48:54 10° NW visible
02 Aug 7.3 22:07:54 10° SW 22:12:14 25° WNW 22:16:28 10° NNW visible
03 Aug 6.3 21:33:28 10° SSW 21:38:26 44° W 21:43:26 10° N visible
05 Aug 7.8 22:08:55 10° WSW 22:12:34 18° WNW 22:16:02 10° NNW visible
06 Aug 7.0 21:34:02 10° SW 21:38:41 31° WNW 21:43:17 10° NNW visible
